Station 42022 - C12 - WFS Central Buoy, 50m Isobath Image indicating link to RSS feed of recent meteorological observations for station 42022


Conditions at 42022 as of
(4:35 pm CDT)
2135 GMT on 05/30/2024:
     

Click on the graph icon in the table below to see a time series plot of the last five days of that observation.

5-day plot - Wind Direction Wind Direction (WDIR):NNE ( 30 deg true )
5-day plot - Wind Speed Wind Speed (WSPD): 11.7 kts
5-day plot - Wind Gust Wind Gust (GST): 13.6 kts
5-day plot - Atmospheric Pressure Atmospheric Pressure (PRES):30.00 in
5-day plot - Air Temperature Air Temperature (ATMP): 83.1 °F
5-day plot - Water Temperature Water Temperature (WTMP): 82.8 °F
5-day plot - Dew Point Dew Point (DEWP): 75.2 °F
5-day plot - Heat Index Heat Index (HEAT): 90.7 °F
5-day plot - Wind Speed at 10 Meters Wind Speed at 10 meters (WSPD10M): 13.6 kts
5-day plot - Wind Speed at 20 Meters Wind Speed at 20 meters (WSPD20M): 13.6 kts
5-day plot -  Wind Speed, Wind Gust and Atmospheric Pressure Combined plot of Wind Speed, Gust, and Air Pressure
Previous observations
TIME
(CDT)
5-day plot - Wind Direction
WDIR
 
5-day plot - Wind Speed
WSPD
kts
5-day plot - Wind Gust
GST
kts
5-day plot - Wave Height
WVHT
ft
5-day plot - Dominant Wave Period
DPD
sec
5-day plot - Average Wave Period
APD
sec
5-day plot - Mean Wave Direction
MWD
 
5-day plot - Atmospheric Pressure
PRES
in
5-day plot - Pressure Tendency
PTDY
in
5-day plot - Air Temperature
ATMP
°F
5-day plot - Water Temperature
WTMP
°F
5-day plot - Dew Point
DEWP
°F
5-day plot - Salinity
SAL
psu
5-day plot - Visibility
VIS
nmi
5-day plot - Tide (above MLLW)
TIDE
ft
2024-05-30 04:05 pm NE 9.7 11.7----30.01- 83.3 82.6 75.9---
2024-05-30 03:35 pm NE 9.7 11.7----30.01- 83.3 82.6 75.7---
2024-05-30 03:05 pm NE 9.7 11.7----30.02- 83.1 82.6 75.9---
2024-05-30 02:35 pm NE 11.7 13.6----30.02- 83.3 82.6 75.9---
2024-05-30 02:05 pm NE 11.7 13.6----30.03- 82.9 82.6 75.9---
2024-05-30 01:35 pm NE 11.7 13.6----30.03- 82.9 82.4 75.7---
2024-05-30 01:05 pm NE 11.7 13.6----30.04- 82.8 82.4 75.9---
2024-05-30 12:35 pmENE 11.7 13.6----30.04- 82.8 82.2 75.2---
2024-05-30 12:05 pmENE 11.7 13.6----30.04- 82.6 82.2 75.2---
2024-05-30 11:35 amENE 13.6 15.5----30.05- 82.4 82.2 75.6---
2024-05-30 11:05 amENE 13.6 15.5----30.05- 82.8 82.2 76.1---
2024-05-30 10:35 am NE 13.6 17.5----30.05- 82.9 82.2 75.4---
2024-05-30 10:05 am NE 13.6 17.5----30.04- 83.1 82.2 74.7---
2024-05-30 09:35 am NE 13.6 17.5----30.04- 82.9 82.2 73.9---
2024-05-30 09:05 am NE 13.6 17.5----30.04- 83.3 82.2 73.8---
2024-05-30 08:35 am NE 13.6 15.5----30.04- 83.1 82.2 73.8---
2024-05-30 08:05 am NE 13.6 15.5----30.04- 83.1 82.2 72.7---
2024-05-30 07:35 am NE 11.7 15.5----30.04- 82.9 82.2 73.2---
2024-05-30 07:05 am NE 13.6 17.5----30.03- 82.6 82.2 73.0---
2024-05-30 06:35 am NE 11.7 15.5----30.03- 82.0 82.2 75.4---
2024-05-30 06:05 amNNE 13.6 15.5----30.02- 82.0 82.4 77.0---
2024-05-30 05:35 amNNE 11.7 13.6----30.01- 82.0 82.4 77.4---
2024-05-30 05:05 amNNE 11.7 13.6----30.01- 82.2 82.4 76.8---
2024-05-30 04:35 amNNE 9.7 11.7----30.01- 82.2 82.4 76.3---
2024-05-30 04:05 amNNE 7.8 9.7----30.01- 82.4 82.4 76.3---
2024-05-30 03:35 amNNE 7.8 9.7----30.01- 82.6 82.4 75.7---
2024-05-30 03:05 am NE 7.8 9.7----30.01- 82.8 82.4 75.7---
2024-05-30 02:35 am NE 7.8 9.7----30.01- 82.8 82.4 75.4---
2024-05-30 02:05 amENE 7.8 9.7----30.03- 82.8 82.6 75.0---
2024-05-30 01:35 am NE 7.8 9.7----30.03- 82.9 82.6 74.1---
2024-05-30 01:05 am N 9.7 11.7----30.03- 82.8 82.6 73.0---
2024-05-30 12:35 am N 7.8 9.7----30.03- 82.9 82.6 73.2---
2024-05-30 12:05 am N 9.7 11.7----30.04- 82.8 82.6 73.2---
2024-05-29 11:35 pm N 9.7 13.6----30.04- 82.9 82.8 73.2---
2024-05-29 11:05 pm N 9.7 11.7----30.04- 82.9 82.8 72.5---
2024-05-29 10:35 pm N 7.8 9.7----30.05- 82.9 82.9 72.9---
2024-05-29 10:05 pm N 5.8 7.8----30.05- 82.9 82.9 72.7---
2024-05-29 09:35 pm N 7.8 9.7----30.05- 82.9 82.9 71.8---
2024-05-29 09:05 pm N 9.7 11.7----30.05- 82.9 82.9 73.2---
2024-05-29 08:35 pm N 9.7 11.7----30.03- 82.9 82.9 72.3---
2024-05-29 08:05 pm N 9.7 9.7----30.04- 82.9 82.9 72.3---
2024-05-29 07:35 pm N 7.8 9.7----30.04- 83.3 83.1 72.1---
2024-05-29 07:05 pmNNE 9.7 9.7----30.04- 83.1 83.1 72.0---
2024-05-29 06:35 pmNNE 9.7 11.7----30.03- 83.5 83.3 72.0---
2024-05-29 06:05 pmNNE 9.7 13.6----30.03- 83.8 83.3 71.1---
2024-05-29 05:35 pmNNE 9.7 11.7----30.03- 83.7 83.5 73.4---
2024-05-29 05:05 pmNNE 9.7 11.7----30.03- 83.1 83.5 73.4---

Disclaimer: Ocean current directions are reported to the nearest 10 degrees and speeds are measured to the nearest whole centimeter per second.

Ocean Current Data for 42022

Unit of Measure:   Time Zone:   
3:57 pm CDT 2:57 pm CDT 1:57 pm CDT
Depth
ft
Dir
°
Speed
kts
Dir
°
Speed
kts
Dir
°
Speed
kts
10 230 0.14240 0.17 40 0.04
13 180 0.16220 0.10100 0.06
16 50 0.04120 0.04 70 0.08
20 80 0.06120 0.10 60 0.12
23 110 0.10130 0.04 60 0.12
26 120 0.14100 0.10 70 0.14
30 110 0.14100 0.16 80 0.19
33 110 0.19100 0.21 80 0.21
36 100 0.27 90 0.21 80 0.23
39 110 0.29100 0.25 80 0.27
43 120 0.31 90 0.27 80 0.31
46 110 0.37100 0.29 80 0.31
49 110 0.41100 0.31 80 0.27
52 110 0.41100 0.35 80 0.33
56 100 0.45100 0.39 80 0.39
59 110 0.39100 0.39 80 0.37
62 120 0.47100 0.41 90 0.29
66 120 0.41110 0.47 90 0.29
69 120 0.35100 0.37100 0.27
72 110 0.33100 0.37 90 0.23
75 110 0.29100 0.31 90 0.17
79 120 0.27100 0.27 70 0.14
82 90 0.21100 0.21 80 0.08
85 90 0.12 90 0.17 20 0.04
89 60 0.10100 0.12260 0.04
92 10 0.06110 0.04260 0.08
95 320 0.04 10 0.02260 0.12
98 260 0.10280 0.06260 0.12
102 300 0.14280 0.08270 0.16
105 290 0.16290 0.14270 0.23
108 300 0.21270 0.21270 0.23
112 290 0.21280 0.25260 0.29
115 290 0.21280 0.29270 0.21
118 280 0.17270 0.29270 0.23
121 280 0.16280 0.27270 0.21
125 290 0.17270 0.23270 0.21
128 280 0.14270 0.25270 0.19
131 310 0.08270 0.23270 0.19
135 290 0.10270 0.21240 0.14
138 280 0.08290 0.19280 0.06

Previous (up to 48) reports of ocean current data for 42022

Ocean Current Stick Plots are available in metric units only:

All Instruments - 1-day plot - ocean current 1-day plot     3-day plot - ocean current 3-day plot     5-day plot - ocean current 5-day plot